Simultaneous Nadir Overpasses (SNOs) Predictions

Prediction of SNOs between AQUA and NPP Satellite Orbit:

Table of predicted SNOs for the next 14.0 days since TLE Epoch: 7/30/2022
Index Date (AQUA) Time (AQUA) Lat,Lon (AQUA) SZA (AQUA ) Date (NPP) Time (NPP) Lat,Lon (NPP) SZA (NPP ) Distance(km) Time Diff (sec)
1 07/30/2022 07:25:58 -78.05, 136.35 103.33 07/30/2022 07:24:46 -78.06, 136.44 103.30 2.35 72
2 07/30/2022 08:15:11 78.58, -53.36 75.98 07/30/2022 08:15:17 78.59, -53.29 75.96 1.68 6
3 08/01/2022 23:41:39 -78.54,-105.18 103.33 08/01/2022 23:41:31 -78.55,-105.07 103.35 2.57 8
4 08/02/2022 00:30:54 78.96, 64.84 76.09 08/02/2022 00:32:04 78.97, 64.95 76.02 2.48 70
5 08/04/2022 15:08:08 78.38,-157.61 77.55 08/04/2022 15:07:47 78.38,-157.59 77.57 0.43 21
6 08/04/2022 15:57:26 -78.76, 12.04 102.95 08/04/2022 15:58:23 -78.75, 11.95 102.98 1.98 57
7 08/07/2022 06:34:39 -78.20, 149.91 101.52 08/07/2022 06:34:05 -78.19, 149.78 101.46 3.03 34
8 08/07/2022 07:23:53 78.67, -40.03 77.87 08/07/2022 07:24:37 78.66, -40.16 77.86 2.77 44
9 08/09/2022 22:01:04 78.14, 98.01 79.29 08/09/2022 22:00:17 78.13, 97.91 79.35 2.42 47
10 08/09/2022 22:50:17 -78.74, -91.26 101.51 08/09/2022 22:50:47 -78.74, -91.22 101.54 0.88 30
11 08/12/2022 13:27:28 -78.25, 46.95 100.11 08/12/2022 13:26:27 -78.25, 47.04 100.08 2.18 61



Historial Predications of SNOs between AQUA and NPP
